Weather History for St. George, UT

Change the Weather History Date:

Sunday, June 2, 2013

  Actual Average Record
Temperature  
Mean Temperature 80 °F -  
Max Temperature 98 °F 92 °F 104 °F (1968)
Min Temperature 62 °F 58 °F 39 °F (1955)
Cooling Degree Days 15    
Growing Degree Days 30 (Base 50)    
Moisture  
Dew Point 22 °F    
Average Humidity 11    
Maximum Humidity 14    
Minimum Humidity 10    
Precipitation  
Precipitation 0.00 in - - ()
Sea Level Pressure  
Sea Level Pressure 29.84 in    
Wind  
Wind Speed 5 mph (West)    
Max Wind Speed 17 mph    
Max Gust Speed 23 mph    
Visibility 10 miles    
Events      
Averages and records for this station are not official NWS values.
T = Trace of Precipitation, MM = Missing Value Source: NWS Daily Summary

Daily Weather History Graph

Daily Weather History Graph

Search for Another Location

Airport:

Trip Planner

Search our weather history database for the weather conditions in past years. The results will help you decide how hot, cold, wet, or windy it might be!

Date:

Astronomy

Jun. 02, 2013 Rise Set
Actual Time 6:15 AM MDT 8:49 PM MDT
Civil Twilight 5:45 AM MDT 9:20 PM MDT
Nautical Twilight 5:07 AM MDT 9:57 PM MDT
Astronomical Twilight 4:25 AM MDT 10:39 PM MDT
Moon 2:37 AM MDT (6/2) 3:30 PM MDT (6/2)
Length of Visible Light 15h 34m
Length of Day
14h 34m
Waning Crescent, 30% of the Moon is Illuminated
Jun 2
Waning Crescent
Jun 8
New
Jun 16
First Quarter
Jun 23
Full
Jun 29
Last Quarter

Hourly Weather History & Observations

Time (MDT) Temp. Dew Point Humidity Pressure Visibility Wind Dir Wind Speed Gust Speed Precip Events Conditions
12:35 AM 71.6 °F 14.0 °F 11% 29.92 in 10.0 mi WSW 3.5 mph - N/A   Clear
12:55 AM 73.4 °F 15.8 °F 11% 29.92 in 10.0 mi West 4.6 mph - N/A   Clear
1:15 AM 75.2 °F 15.8 °F 11% 29.92 in 10.0 mi Calm Calm - N/A   Clear
1:35 AM 75.2 °F 15.8 °F 11% 29.92 in 10.0 mi Calm Calm - N/A   Clear
1:55 AM 73.4 °F 15.8 °F 11% 29.92 in 10.0 mi NE 3.5 mph - N/A   Clear
2:15 AM 71.6 °F 14.0 °F 11% 29.92 in 10.0 mi ENE 4.6 mph - N/A   Clear
2:35 AM 71.6 °F 12.2 °F 10% 29.92 in 10.0 mi East 4.6 mph - N/A   Clear
2:55 AM 69.8 °F 12.2 °F 11% 29.92 in 10.0 mi ESE 5.8 mph - N/A   Clear
3:15 AM 71.6 °F 12.2 °F 10% 29.92 in 10.0 mi SE 3.5 mph - N/A   Clear
3:35 AM 71.6 °F 12.2 °F 10% 29.92 in 10.0 mi Calm Calm - N/A   Clear
3:55 AM 71.6 °F 12.2 °F 10% 29.92 in 10.0 mi Calm Calm - N/A   Clear
4:15 AM 69.8 °F 12.2 °F 11% 29.91 in 10.0 mi South 3.5 mph - N/A   Clear
4:35 AM 69.8 °F 12.2 °F 11% 29.91 in 10.0 mi SSE 3.5 mph - N/A   Clear
4:55 AM 66.2 °F 10.4 °F 11% 29.91 in 10.0 mi SSE 6.9 mph - N/A   Clear
5:15 AM 66.2 °F 10.4 °F 11% 29.91 in 10.0 mi South 5.8 mph - N/A   Clear
5:35 AM 64.4 °F 10.4 °F 12% 29.91 in 10.0 mi Calm Calm - N/A   Clear
5:55 AM 64.4 °F 10.4 °F 12% 29.91 in 10.0 mi East 3.5 mph - N/A   Clear
6:15 AM 62.6 °F 10.4 °F 13% 29.91 in 10.0 mi Calm Calm - N/A   Clear
6:35 AM 66.2 °F 12.2 °F 12% 29.92 in 10.0 mi ESE 5.8 mph - N/A   Clear
6:55 AM 64.4 °F 12.2 °F 13% 29.92 in 10.0 mi Calm Calm - N/A   Clear
7:15 AM 64.4 °F 12.2 °F 13% 29.93 in 10.0 mi SE 4.6 mph - N/A   Clear
7:35 AM 68.0 °F 14.0 °F 12% 29.93 in 10.0 mi SE 3.5 mph - N/A   Clear
7:55 AM 66.2 °F 15.8 °F 14% 29.94 in 10.0 mi North 4.6 mph - N/A   Clear
8:15 AM 69.8 °F 15.8 °F 13% 29.93 in 10.0 mi NNW 4.6 mph - N/A   Clear
8:35 AM 71.6 °F 17.6 °F 13% 29.93 in 10.0 mi North 5.8 mph - N/A   Clear
8:55 AM 73.4 °F 19.4 °F 13% 29.93 in 10.0 mi Calm Calm - N/A   Clear
9:15 AM 75.2 °F 19.4 °F 12% 29.92 in 10.0 mi Calm Calm - N/A   Clear
9:35 AM 75.2 °F 19.4 °F 12% 29.92 in 10.0 mi Calm Calm - N/A   Clear
9:55 AM 78.8 °F 19.4 °F 11% 29.91 in 10.0 mi West 4.6 mph - N/A   Clear
10:15 AM 78.8 °F 21.2 °F 12% 29.91 in 10.0 mi WNW 4.6 mph - N/A   Clear
10:35 AM 80.6 °F 21.2 °F 11% 29.90 in 10.0 mi NW 5.8 mph - N/A   Clear
10:55 AM 82.4 °F 21.2 °F 10% 29.89 in 10.0 mi WNW 5.8 mph - N/A   Clear
11:15 AM 84.2 °F 23.0 °F 11% 29.89 in 10.0 mi NW 4.6 mph - N/A   Clear
11:35 AM 86.0 °F 24.8 °F 11% 29.88 in 10.0 mi NNW 5.8 mph - N/A   Clear
11:55 AM 87.8 °F 24.8 °F 10% 29.87 in 10.0 mi NNW 4.6 mph - N/A   Clear
12:15 PM 89.6 °F 26.6 °F 10% 29.86 in 10.0 mi NNW 6.9 mph - N/A   Clear
12:35 PM 89.6 °F 26.6 °F 10% 29.86 in 10.0 mi WSW 4.6 mph - N/A   Clear
12:55 PM 89.6 °F 26.6 °F 10% 29.85 in 10.0 mi SW 3.5 mph - N/A   Clear
1:15 PM 91.4 °F 28.4 °F 10% 29.84 in 10.0 mi WNW 4.6 mph - N/A   Clear
1:35 PM 93.2 °F 28.4 °F 10% 29.83 in 10.0 mi WNW 6.9 mph 16.1 mph N/A   Clear
1:55 PM 93.2 °F 28.4 °F 10% 29.81 in 10.0 mi West 8.1 mph - N/A   Clear
2:15 PM 95.0 °F 30.2 °F 10% 29.80 in 10.0 mi NNW 4.6 mph - N/A   Clear
2:35 PM 96.8 °F 30.2 °F 10% 29.79 in 10.0 mi West 12.7 mph 19.6 mph N/A   Clear
2:55 PM 96.8 °F 30.2 °F 10% 29.79 in 10.0 mi NNW 8.1 mph - N/A   Clear
3:15 PM 96.8 °F 32.0 °F 10% 29.78 in 10.0 mi WNW 10.4 mph - N/A   Clear
3:35 PM 98.6 °F 32.0 °F 10% 29.77 in 10.0 mi West 12.7 mph 18.4 mph N/A   Clear
3:55 PM 98.6 °F 33.8 °F 10% 29.76 in 10.0 mi West 13.8 mph 18.4 mph N/A   Clear
4:15 PM 98.6 °F 33.8 °F 10% 29.75 in 10.0 mi WSW 12.7 mph 21.9 mph N/A   Clear
4:35 PM 98.6 °F 33.8 °F 10% 29.75 in 10.0 mi West 13.8 mph 19.6 mph N/A   Clear
4:55 PM 98.6 °F 33.8 °F 10% 29.74 in 10.0 mi WSW 10.4 mph 19.6 mph N/A   Clear
5:15 PM 98.6 °F 33.8 °F 10% 29.74 in 10.0 mi West 11.5 mph 17.3 mph N/A   Clear
5:35 PM 98.6 °F 33.8 °F 10% 29.73 in 10.0 mi WSW 13.8 mph 18.4 mph N/A   Clear
5:55 PM 98.6 °F 33.8 °F 10% 29.72 in 10.0 mi West 13.8 mph - N/A   Clear
6:15 PM 98.6 °F 33.8 °F 10% 29.72 in 10.0 mi West 17.3 mph 20.7 mph N/A   Clear
6:35 PM 96.8 °F 32.0 °F 10% 29.72 in 10.0 mi West 15.0 mph 20.7 mph N/A   Clear
6:55 PM 96.8 °F 32.0 °F 10% 29.71 in 10.0 mi West 13.8 mph 23.0 mph N/A   Clear
7:15 PM 96.8 °F 32.0 °F 10% 29.71 in 10.0 mi West 17.3 mph 20.7 mph N/A   Clear
7:35 PM 96.8 °F 30.2 °F 10% 29.72 in 10.0 mi West 12.7 mph - N/A   Clear
7:55 PM 96.8 °F 30.2 °F 10% 29.72 in 10.0 mi West 11.5 mph 16.1 mph N/A   Clear
8:15 PM 95.0 °F 30.2 °F 10% 29.72 in 10.0 mi West 8.1 mph - N/A   Clear
8:35 PM 93.2 °F 28.4 °F 10% 29.72 in 10.0 mi West 8.1 mph - N/A   Clear
8:55 PM 91.4 °F 28.4 °F 10% 29.72 in 10.0 mi WNW 4.6 mph - N/A   Clear
9:15 PM 89.6 °F 26.6 °F 10% 29.73 in 10.0 mi South 3.5 mph - N/A   Clear
9:35 PM 87.8 °F 24.8 °F 10% 29.73 in 10.0 mi South 4.6 mph - N/A   Clear
9:55 PM 87.8 °F 24.8 °F 10% 29.74 in 10.0 mi SSE 5.8 mph - N/A   Clear
10:15 PM 82.4 °F 21.2 °F 10% 29.74 in 10.0 mi SSE 6.9 mph - N/A   Clear
10:35 PM 82.4 °F 21.2 °F 10% 29.75 in 10.0 mi SSE 4.6 mph - N/A   Clear
10:55 PM 84.2 °F 21.2 °F 10% 29.75 in 10.0 mi Calm Calm - N/A   Clear
11:15 PM 84.2 °F 23.0 °F 11% 29.75 in 10.0 mi North 3.5 mph - N/A   Clear
11:35 PM 84.2 °F 21.2 °F 10% 29.75 in 10.0 mi NNE 5.8 mph - N/A   Clear
11:55 PM 82.4 °F 21.2 °F 10% 29.75 in 10.0 mi NE 3.5 mph - N/A   Clear